sat.trackr.live / text

‹ back to catalog

FLOCK 4Q-22

NORAD 58306 · 2023-174BC

PAYLOAD ACTIVE UNKNOWN

§ Identity

Operator
Country
US
Launch date
2023-11-11
Launch site
AFWTR
Launch vehicle
Mass (kg)
RCS (m²)

Purposes: earth_obs

External: N2YO · Heavens-Above · Gunter

§ Orbital elements

Epoch: 2026-06-04T04:47:07.171584Z

Period
92.36 min
Inclination
97.3823°
Eccentricity
0.0005397
Mean motion
15.59061008 rev/d
Perigee alt
386.7 km
Apogee alt
394.0 km
Semi-major
6,768.5 km
B*
1.2782e-3
RAAN
246.9780°
Arg perigee
178.3794°
Mean anomaly
181.7480°
Rev number
14,384

§ Raw data

FLOCK 4Q-221 58306U 23174BC  26155.19938856  .00100659  00000+0  12782-2 0  99992 58306  97.3823 246.9780 0005397 178.3794 181.7480 15.59061008143849

JSON: /api/v1/satellites/58306 · /tle

For live sub-satellite position, see the globe view (requires WebGL).

§ Visibility from observer

Set your observer location to see the next 7 days of passes ≥ 10°. The values pass through the URL so the page stays shareable.

No JS? Fill the form by hand. The geolocation button needs JavaScript.